Orbital Elements at Epoch 2459000.5 (2020-May-31.0) TDB
Reference: JPL 20 (heliocentric ecliptic J2000)
Element | Value | Uncertainty (1-sigma) | Units |
e | .1340472660495883 | 6.0644e-08 | |
a | 2.28296336464397 | 9.3368e-09 | au |
q | 1.976938367122076 | 1.3595e-07 | au |
i | 9.95165390752824 | 5.5006e-06 | deg |
node | 347.2715856488443 | 2.6326e-05 | deg |
peri | 43.24346595047368 | 3.3999e-05 | deg |
M | 79.62090259933458 | 1.8609e-05 | deg |
tp | 2458721.842051112731 (2019-Aug-26.34205111) | 6.483e-05 | TDB |
period | 1259.931228162881 3.45 | 7.7293e-06 2.116e-08 | d yr |
n | .2857298810863828 | 1.7529e-09 | deg/d |
Q | 2.588988362165864 | 1.0588e-08 | au |
|
| | Orbit Determination Parameters
Additional Information
|